Weather History for Stevens Point, WI

Change the Weather History Date:

Sunday, September 30, 2012

  Actual Average Record
Temperature  
Mean Temperature 49 °F -  
Max Temperature 64 °F 63 °F 81 °F (1983)
Min Temperature 34 °F 43 °F 28 °F (1993)
Degree Days  
Heating Degree Days 16    
Moisture  
Dew Point 38 °F    
Average Humidity 69    
Maximum Humidity 96    
Minimum Humidity 36    
Precipitation  
Precipitation 0.00 in - - ()
Sea Level Pressure  
Sea Level Pressure 30.01 in    
Wind  
Wind Speed 2 mph (ESE)    
Max Wind Speed 10 mph    
Max Gust Speed -    
Visibility 10 miles    
Events      
Averages and records for this station are not official NWS values.
T = Trace of Precipitation, MM = Missing Value Source: NWS Daily Summary

Daily Weather History Graph

Daily Weather History Graph

Search for Another Location

Airport:

Trip Planner

Search our weather history database for the weather conditions in past years. The results will help you decide how hot, cold, wet, or windy it might be!

Date:

Astronomy

Sep. 30, 2012 Rise Set
Actual Time 6:55 AM CDT 6:39 PM CDT
Civil Twilight 6:26 AM CDT 7:08 PM CDT
Nautical Twilight 5:52 AM CDT 7:42 PM CDT
Astronomical Twilight 5:18 AM CDT 8:16 PM CDT
Moon 6:39 PM CDT (9/30) 7:29 AM CDT (9/30)
Length of Visible Light 12h 42m
Length of Day
11h 44m
Full, 100% of the Moon is Illuminated
Sep 30
Full
Oct 8
Last Quarter
Oct 15
New
Oct 21
First Quarter
Oct 29
Full

Hourly Weather History & Observations

Time (CDT) Temp. Windchill Dew Point Humidity Pressure Visibility Wind Dir Wind Speed Gust Speed Precip Events Conditions
12:15 AM 44.2 °F 42.7 °F 39.2 °F 82% 30.06 in 10.0 mi NNE 3.5 mph - N/A   Clear
12:55 AM 41.2 °F - 37.8 °F 88% 30.06 in 10.0 mi Calm Calm - N/A   Clear
1:15 AM 44.4 °F - 38.7 °F 80% 30.06 in 10.0 mi Calm Calm - N/A   Clear
1:35 AM 41.5 °F - 38.5 °F 89% 30.06 in 10.0 mi Calm Calm - N/A   Clear
1:55 AM 40.6 °F - 37.4 °F 88% 30.06 in 10.0 mi Calm Calm - N/A   Clear
2:15 AM 37.8 °F - 36.0 °F 93% 30.05 in 10.0 mi Calm Calm - N/A   Clear
2:35 AM 39.4 °F - 37.2 °F 92% 30.05 in 10.0 mi Calm Calm - N/A   Clear
2:55 AM 39.6 °F - 36.7 °F 89% 30.04 in 10.0 mi Calm Calm - N/A   Clear
3:15 AM 37.4 °F - 35.8 °F 94% 30.04 in 10.0 mi Calm Calm - N/A   Clear
3:35 AM 37.4 °F - 35.2 °F 92% 30.04 in 10.0 mi Calm Calm - N/A   Clear
3:55 AM 37.0 °F - 35.4 °F 94% 30.04 in 10.0 mi Calm Calm - N/A   Clear
4:15 AM 34.9 °F - 33.4 °F 94% 30.04 in 10.0 mi Calm Calm - N/A   Clear
4:35 AM 37.0 °F - 35.2 °F 93% 30.04 in 10.0 mi Calm Calm - N/A   Clear
4:55 AM 38.5 °F - 36.5 °F 93% 30.04 in 10.0 mi Calm Calm - N/A   Clear
5:15 AM 35.2 °F - 33.1 °F 92% 30.04 in 10.0 mi Calm Calm - N/A   Clear
5:35 AM 34.9 °F - 32.9 °F 92% 30.03 in 10.0 mi Calm Calm - N/A   Clear
5:55 AM 36.5 °F - 35.4 °F 96% 30.03 in 10.0 mi Calm Calm - N/A   Clear
6:15 AM 38.5 °F - 36.7 °F 93% 30.04 in 10.0 mi Calm Calm - N/A   Clear
6:35 AM 34.9 °F - 33.3 °F 94% 30.04 in 10.0 mi Calm Calm - N/A   Clear
6:55 AM 34.9 °F - 33.6 °F 95% 30.05 in 10.0 mi Calm Calm - N/A   Clear
7:15 AM 35.4 °F - 33.6 °F 93% 30.05 in 10.0 mi Calm Calm - N/A   Clear
7:35 AM 34.7 °F - 33.4 °F 95% 30.05 in 10.0 mi Calm Calm - N/A   Clear
7:55 AM 40.3 °F - 38.5 °F 93% 30.05 in 10.0 mi Calm Calm - N/A   Clear
8:15 AM 41.7 °F - 39.4 °F 91% 30.05 in 10.0 mi Calm Calm - N/A   Clear
8:35 AM 43.7 °F - 40.3 °F 88% 30.05 in 10.0 mi Calm Calm - N/A   Clear
8:55 AM 46.8 °F - 41.9 °F 83% 30.05 in 10.0 mi ENE 4.6 mph - N/A   Clear
9:15 AM 49.1 °F - 42.3 °F 77% 30.05 in 10.0 mi East 6.9 mph - N/A   Clear
9:55 AM 51.8 °F - 41.7 °F 68% 30.06 in 10.0 mi ESE 5.8 mph - N/A   Clear
10:15 AM 52.5 °F - 41.5 °F 66% 30.06 in 10.0 mi Calm Calm - N/A   Clear
10:35 AM 54.1 °F - 41.9 °F 63% 30.05 in 10.0 mi Calm Calm - N/A   Clear
10:55 AM 54.9 °F - 41.7 °F 61% 30.05 in 10.0 mi East 3.5 mph - N/A   Clear
11:15 AM 57.0 °F - 42.4 °F 58% 30.04 in 10.0 mi ENE 6.9 mph - N/A   Clear
11:35 AM 57.9 °F - 41.7 °F 55% 30.03 in 10.0 mi ENE 5.8 mph - N/A   Clear
11:55 AM 58.3 °F - 40.5 °F 52% 30.03 in 10.0 mi East 3.5 mph - N/A   Clear
12:15 PM 59.7 °F - 40.1 °F 48% 30.03 in 10.0 mi NNE 10.4 mph - N/A   Clear
12:35 PM 61.0 °F - 37.9 °F 42% 30.02 in 10.0 mi East 6.9 mph - N/A   Clear
12:55 PM 61.0 °F - 37.4 °F 42% 30.01 in 10.0 mi ESE 9.2 mph - N/A   Clear
1:15 PM 61.5 °F - 37.2 °F 41% 30.01 in 10.0 mi SE 4.6 mph - N/A   Clear
1:35 PM 62.2 °F - 37.4 °F 40% 30.00 in 10.0 mi East 5.8 mph - N/A   Clear
1:55 PM 62.8 °F - 36.9 °F 38% 30.00 in 10.0 mi SE 3.5 mph - N/A   Clear
2:15 PM 62.6 °F - 36.1 °F 37% 29.99 in 10.0 mi ESE 3.5 mph - N/A   Clear
2:35 PM 63.0 °F - 36.9 °F 38% 29.99 in 10.0 mi SSE 5.8 mph - N/A   Clear
2:55 PM 62.8 °F - 36.7 °F 38% 29.99 in 10.0 mi South 3.5 mph - N/A   Clear
3:15 PM 63.5 °F - 36.9 °F 37% 29.99 in 10.0 mi Calm Calm - N/A   Clear
3:35 PM 63.7 °F - 36.5 °F 36% 29.98 in 10.0 mi Calm Calm - N/A   Clear
3:55 PM 63.7 °F - 36.5 °F 36% 29.98 in 10.0 mi Calm Calm - N/A   Clear
4:15 PM 64.0 °F - 36.7 °F 36% 29.98 in 10.0 mi SSE 5.8 mph - N/A   Clear
4:35 PM 63.9 °F - 36.9 °F 37% 29.97 in 10.0 mi ESE 4.6 mph - N/A   Clear
4:55 PM 63.9 °F - 37.0 °F 37% 29.97 in 10.0 mi SSE 5.8 mph - N/A   Clear
5:15 PM 63.5 °F - 36.7 °F 37% 29.96 in 10.0 mi Calm Calm - N/A   Clear
5:35 PM 63.1 °F - 36.7 °F 37% 29.96 in 10.0 mi Calm Calm - N/A   Clear
5:55 PM 61.0 °F - 36.5 °F 40% 29.96 in 10.0 mi Calm Calm - N/A   Clear
6:15 PM 58.6 °F - 36.9 °F 44% 29.96 in 10.0 mi SE 3.5 mph - N/A   Clear
6:35 PM 53.8 °F - 37.4 °F 54% 29.96 in 10.0 mi Calm Calm - N/A   Clear
6:55 PM 51.4 °F - 38.8 °F 62% 29.96 in 10.0 mi ESE 3.5 mph - N/A   Clear
7:15 PM 54.0 °F - 39.6 °F 58% 29.96 in 10.0 mi Calm Calm - N/A   Clear
7:35 PM 53.4 °F - 40.5 °F 61% 29.96 in 10.0 mi Calm Calm - N/A   Clear
7:55 PM 50.4 °F - 39.9 °F 67% 29.96 in 10.0 mi Calm Calm - N/A   Clear
8:15 PM 50.9 °F - 40.3 °F 67% 29.96 in 10.0 mi Calm Calm - N/A   Clear
8:35 PM 48.7 °F - 39.6 °F 71% 29.97 in 10.0 mi Calm Calm - N/A   Clear
8:55 PM 46.2 °F - 39.4 °F 77% 29.97 in 10.0 mi Calm Calm - N/A   Clear
9:15 PM 46.0 °F - 39.4 °F 78% 29.97 in 10.0 mi Calm Calm - N/A   Clear
9:35 PM 44.4 °F - 38.7 °F 80% 29.96 in 10.0 mi Calm Calm - N/A   Clear
9:55 PM 42.6 °F - 37.9 °F 83% 29.96 in 10.0 mi Calm Calm - N/A   Clear
10:15 PM 44.1 °F - 39.2 °F 83% 29.97 in 10.0 mi Calm Calm - N/A   Clear
10:35 PM 42.1 °F - 38.3 °F 86% 29.97 in 7.0 mi Calm Calm - N/A   Clear
10:55 PM 43.7 °F - 38.5 °F 82% 29.96 in 10.0 mi Calm Calm - N/A   Clear
11:15 PM 41.4 °F - 37.8 °F 87% 29.96 in 10.0 mi Calm Calm - N/A   Clear
11:35 PM 40.3 °F - 37.0 °F 88% 29.96 in 10.0 mi Calm Calm - N/A   Clear